1580338840,2020-01-30 00:00,396.00,-39
1580338900,2020-01-30 00:01,397.00,-42
1580338960,2020-01-30 00:02,395.00,-41
1580339020,2020-01-30 00:03,397.00,-40
1580339080,2020-01-30 00:04,399.00,-41
1580339140,2020-01-30 00:05,397.00,-42
1580339200,2020-01-30 00:06,397.00,-42
1580339260,2020-01-30 00:07,396.00,-42
1580339320,2020-01-30 00:08,397.00,-40
1580339380,2020-01-30 00:09,397.00,-42
1580339440,2020-01-30 00:10,397.00,-39
1580339501,2020-01-30 00:11,396.00,-40
1580339561,2020-01-30 00:12,397.00,-42
1580339621,2020-01-30 00:13,399.00,-41
1580339681,2020-01-30 00:14,395.00,-41
1580339741,2020-01-30 00:15,397.00,-42
1580339801,2020-01-30 00:16,397.00,-41
1580339861,2020-01-30 00:17,395.00,-40
1580339921,2020-01-30 00:18,398.00,-41
1580339981,2020-01-30 00:19,396.00,-42
1580340041,2020-01-30 00:20,396.00,-39
1580340101,2020-01-30 00:21,398.00,-42
1580340161,2020-01-30 00:22,398.00,-37
1580340221,2020-01-30 00:23,396.00,-41
1580340281,2020-01-30 00:24,396.00,-42
1580340341,2020-01-30 00:25,397.00,-40
1580340401,2020-01-30 00:26,395.00,-41
1580340462,2020-01-30 00:27,396.00,-42
1580340522,2020-01-30 00:28,396.00,-42
1580340582,2020-01-30 00:29,396.00,-41
1580340642,2020-01-30 00:30,396.00,-39
1580340702,2020-01-30 00:31,395.00,-42
1580340762,2020-01-30 00:32,396.00,-39
1580340822,2020-01-30 00:33,396.00,-40
1580340882,2020-01-30 00:34,398.00,-41
1580340942,2020-01-30 00:35,399.00,-39
1580341002,2020-01-30 00:36,398.00,-42
1580341062,2020-01-30 00:37,397.00,-42
1580341122,2020-01-30 00:38,395.00,-39
1580341182,2020-01-30 00:39,396.00,-41
1580341242,2020-01-30 00:40,397.00,-41
1580341302,2020-01-30 00:41,398.00,-41
1580341362,2020-01-30 00:42,398.00,-41
1580341423,2020-01-30 00:43,397.00,-41
1580341483,2020-01-30 00:44,398.00,-41
1580341543,2020-01-30 00:45,396.00,-42
1580341603,2020-01-30 00:46,398.00,-39
1580341663,2020-01-30 00:47,397.00,-41
1580341723,2020-01-30 00:48,396.00,-40
1580341783,2020-01-30 00:49,396.00,-41
1580341843,2020-01-30 00:50,396.00,-41
1580341903,2020-01-30 00:51,396.00,-41
1580341963,2020-01-30 00:52,398.00,-40
1580342023,2020-01-30 00:53,398.00,-38
1580342083,2020-01-30 00:54,396.00,-42
1580342143,2020-01-30 00:55,397.00,-39
1580342204,2020-01-30 00:56,398.00,-40
1580342264,2020-01-30 00:57,396.00,-42
1580342324,2020-01-30 00:58,397.00,-41
1580342384,2020-01-30 00:59,399.00,-40
1580342444,2020-01-30 01:00,397.00,-40
1580342504,2020-01-30 01:01,400.00,-42
1580342564,2020-01-30 01:02,398.00,-42
1580342624,2020-01-30 01:03,396.00,-42
1580342684,2020-01-30 01:04,398.00,-40
1580342745,2020-01-30 01:05,399.00,-42
1580342805,2020-01-30 01:06,397.00,-41
1580342865,2020-01-30 01:07,398.00,-41
1580342925,2020-01-30 01:08,399.00,-41
1580342985,2020-01-30 01:09,401.00,-40
1580343045,2020-01-30 01:10,398.00,-41
1580343105,2020-01-30 01:11,399.00,-40
1580343165,2020-01-30 01:12,395.00,-40
1580343225,2020-01-30 01:13,395.00,-42
1580343286,2020-01-30 01:14,396.00,-41
1580343346,2020-01-30 01:15,398.00,-41
1580343406,2020-01-30 01:16,399.00,-41
1580343466,2020-01-30 01:17,401.00,-38
1580343526,2020-01-30 01:18,399.00,-41
1580343586,2020-01-30 01:19,398.00,-39
1580343646,2020-01-30 01:20,399.00,-41
1580343706,2020-01-30 01:21,399.00,-40
1580343766,2020-01-30 01:22,401.00,-42
1580343826,2020-01-30 01:23,398.00,-42
1580343886,2020-01-30 01:24,399.00,-41
1580343946,2020-01-30 01:25,398.00,-40
1580344006,2020-01-30 01:26,398.00,-39
1580344066,2020-01-30 01:27,400.00,-37
1580344126,2020-01-30 01:28,399.00,-37
1580344186,2020-01-30 01:29,400.00,-41
1580344246,2020-01-30 01:30,401.00,-41
1580344306,2020-01-30 01:31,403.00,-39
1580344367,2020-01-30 01:32,400.00,-36
1580344427,2020-01-30 01:33,400.00,-41
1580344487,2020-01-30 01:34,398.00,-40
1580344547,2020-01-30 01:35,399.00,-38
1580344607,2020-01-30 01:36,397.00,-41
1580344667,2020-01-30 01:37,403.00,-40
1580344727,2020-01-30 01:38,399.00,-40
1580344787,2020-01-30 01:39,399.00,-41
1580344847,2020-01-30 01:40,401.00,-40
1580344907,2020-01-30 01:41,400.00,-42
1580344967,2020-01-30 01:42,400.00,-43
1580345027,2020-01-30 01:43,400.00,-41
1580345088,2020-01-30 01:44,402.00,-42
1580345148,2020-01-30 01:45,399.00,-41
1580345208,2020-01-30 01:46,399.00,-37
1580345268,2020-01-30 01:47,399.00,-42
1580345328,2020-01-30 01:48,399.00,-40
1580345388,2020-01-30 01:49,401.00,-40
1580345448,2020-01-30 01:50,404.00,-41
1580345508,2020-01-30 01:51,400.00,-42
1580345568,2020-01-30 01:52,401.00,-41
1580345628,2020-01-30 01:53,400.00,-40
1580345688,2020-01-30 01:54,399.00,-39
1580345748,2020-01-30 01:55,401.00,-41
1580345808,2020-01-30 01:56,400.00,-39
1580345868,2020-01-30 01:57,398.00,-41
1580345928,2020-01-30 01:58,398.00,-39
1580345989,2020-01-30 01:59,399.00,-41
1580346049,2020-01-30 02:00,397.00,-40
1580346109,2020-01-30 02:01,399.00,-40
1580346169,2020-01-30 02:02,401.00,-41
1580346229,2020-01-30 02:03,400.00,-40
1580346289,2020-01-30 02:04,399.00,-41
1580346349,2020-01-30 02:05,400.00,-40
1580346409,2020-01-30 02:06,398.00,-40
1580346469,2020-01-30 02:07,399.00,-40
1580346529,2020-01-30 02:08,397.00,-41
1580346589,2020-01-30 02:09,401.00,-39
1580346649,2020-01-30 02:10,402.00,-41
1580346710,2020-01-30 02:11,399.00,-41
1580346770,2020-01-30 02:12,397.00,-40
1580346830,2020-01-30 02:13,398.00,-38
1580346890,2020-01-30 02:14,398.00,-38
1580346950,2020-01-30 02:15,399.00,-40
1580347010,2020-01-30 02:16,400.00,-41
1580347070,2020-01-30 02:17,398.00,-41
1580347130,2020-01-30 02:18,397.00,-38
1580347190,2020-01-30 02:19,400.00,-40
1580347250,2020-01-30 02:20,403.00,-39
1580347310,2020-01-30 02:21,401.00,-41
1580347370,2020-01-30 02:22,400.00,-39
1580347430,2020-01-30 02:23,400.00,-40
1580347490,2020-01-30 02:24,399.00,-39
1580347551,2020-01-30 02:25,397.00,-42
1580347611,2020-01-30 02:26,399.00,-40
1580347671,2020-01-30 02:27,399.00,-42
1580347731,2020-01-30 02:28,397.00,-42
1580347791,2020-01-30 02:29,400.00,-41
1580347851,2020-01-30 02:30,401.00,-39
1580347911,2020-01-30 02:31,400.00,-41
1580347971,2020-01-30 02:32,399.00,-40
1580348031,2020-01-30 02:33,399.00,-41
1580348091,2020-01-30 02:34,401.00,-39
1580348151,2020-01-30 02:35,402.00,-39
1580348211,2020-01-30 02:36,401.00,-39
1580348271,2020-01-30 02:37,398.00,-38
1580348331,2020-01-30 02:38,398.00,-41
1580348391,2020-01-30 02:39,401.00,-42
1580348451,2020-01-30 02:40,399.00,-41
1580348511,2020-01-30 02:41,398.00,-41
1580348571,2020-01-30 02:42,399.00,-41
1580348631,2020-01-30 02:43,397.00,-41
1580348691,2020-01-30 02:44,397.00,-41
1580348751,2020-01-30 02:45,397.00,-40
1580348811,2020-01-30 02:46,399.00,-39
1580348872,2020-01-30 02:47,401.00,-41
1580348932,2020-01-30 02:48,403.00,-42
1580348992,2020-01-30 02:49,403.00,-39
1580349052,2020-01-30 02:50,401.00,-41
1580349112,2020-01-30 02:51,401.00,-42
1580349172,2020-01-30 02:52,399.00,-38
1580349232,2020-01-30 02:53,399.00,-41
1580349292,2020-01-30 02:54,399.00,-41
1580349352,2020-01-30 02:55,398.00,-41
1580349412,2020-01-30 02:56,400.00,-38
1580349473,2020-01-30 02:57,400.00,-41
1580349533,2020-01-30 02:58,400.00,-41
1580349593,2020-01-30 02:59,398.00,-41
1580349653,2020-01-30 03:00,400.00,-40
1580349713,2020-01-30 03:01,398.00,-41
1580349773,2020-01-30 03:02,402.00,-40
1580349833,2020-01-30 03:03,400.00,-41
1580349893,2020-01-30 03:04,399.00,-39
1580349953,2020-01-30 03:05,398.00,-40
1580350013,2020-01-30 03:06,398.00,-40
1580350073,2020-01-30 03:07,401.00,-41
1580350133,2020-01-30 03:08,399.00,-39
1580350193,2020-01-30 03:09,400.00,-42
1580350253,2020-01-30 03:10,398.00,-41
1580350313,2020-01-30 03:11,400.00,-41
1580350373,2020-01-30 03:12,400.00,-40
1580350433,2020-01-30 03:13,400.00,-41
1580350493,2020-01-30 03:14,400.00,-40
1580350553,2020-01-30 03:15,397.00,-37
1580350613,2020-01-30 03:16,399.00,-41
1580350673,2020-01-30 03:17,399.00,-41
1580350733,2020-01-30 03:18,400.00,-42
1580350793,2020-01-30 03:19,400.00,-40
1580350853,2020-01-30 03:20,399.00,-41
1580350913,2020-01-30 03:21,399.00,-40
1580350974,2020-01-30 03:22,401.00,-41
1580351034,2020-01-30 03:23,399.00,-41
1580351094,2020-01-30 03:24,400.00,-42
1580351154,2020-01-30 03:25,400.00,-41
1580351214,2020-01-30 03:26,399.00,-39
1580351274,2020-01-30 03:27,398.00,-41
1580351334,2020-01-30 03:28,398.00,-38
1580351394,2020-01-30 03:29,399.00,-40
1580351454,2020-01-30 03:30,399.00,-40
1580351514,2020-01-30 03:31,399.00,-40
1580351574,2020-01-30 03:32,400.00,-39
1580351634,2020-01-30 03:33,401.00,-39
1580351694,2020-01-30 03:34,400.00,-41
1580351754,2020-01-30 03:35,401.00,-40
1580351814,2020-01-30 03:36,400.00,-40
1580351874,2020-01-30 03:37,401.00,-41
1580351934,2020-01-30 03:38,399.00,-41
1580351994,2020-01-30 03:39,399.00,-35
1580352054,2020-01-30 03:40,402.00,-39
1580352114,2020-01-30 03:41,400.00,-40
1580352174,2020-01-30 03:42,401.00,-40
1580352234,2020-01-30 03:43,399.00,-41
1580352294,2020-01-30 03:44,399.00,-40
1580352355,2020-01-30 03:45,403.00,-39
1580352415,2020-01-30 03:46,402.00,-37
1580352475,2020-01-30 03:47,402.00,-42
1580352535,2020-01-30 03:48,402.00,-41
1580352595,2020-01-30 03:49,403.00,-42
1580352655,2020-01-30 03:50,403.00,-40
1580352715,2020-01-30 03:51,402.00,-42
1580352775,2020-01-30 03:52,401.00,-41
1580352835,2020-01-30 03:53,403.00,-39
1580352895,2020-01-30 03:54,401.00,-39
1580352955,2020-01-30 03:55,399.00,-42
1580353015,2020-01-30 03:56,399.00,-41
1580353075,2020-01-30 03:57,398.00,-39
1580353135,2020-01-30 03:58,396.00,-41
1580353195,2020-01-30 03:59,402.00,-39
1580353255,2020-01-30 04:00,397.00,-40
1580353315,2020-01-30 04:01,401.00,-41
1580353375,2020-01-30 04:02,401.00,-41
1580353435,2020-01-30 04:03,400.00,-39
1580353495,2020-01-30 04:04,400.00,-39
1580353555,2020-01-30 04:05,401.00,-41
1580353616,2020-01-30 04:06,399.00,-39
1580353676,2020-01-30 04:07,401.00,-40
1580353736,2020-01-30 04:08,403.00,-41
1580353796,2020-01-30 04:09,401.00,-41
1580353856,2020-01-30 04:10,399.00,-40
1580353916,2020-01-30 04:11,402.00,-38
1580353976,2020-01-30 04:12,398.00,-41
1580354036,2020-01-30 04:13,402.00,-41
1580354096,2020-01-30 04:14,403.00,-41
1580354156,2020-01-30 04:15,403.00,-40
1580354216,2020-01-30 04:16,402.00,-42
1580354276,2020-01-30 04:17,400.00,-39
1580354336,2020-01-30 04:18,402.00,-41
1580354396,2020-01-30 04:19,403.00,-41
1580354456,2020-01-30 04:20,402.00,-39
1580354516,2020-01-30 04:21,404.00,-38
1580354577,2020-01-30 04:22,403.00,-42
1580354637,2020-01-30 04:23,400.00,-40
1580354697,2020-01-30 04:24,402.00,-39
1580354757,2020-01-30 04:25,401.00,-39
1580354817,2020-01-30 04:26,400.00,-41
1580354877,2020-01-30 04:27,400.00,-40
1580354937,2020-01-30 04:28,400.00,-42
1580354997,2020-01-30 04:29,401.00,-39
1580355057,2020-01-30 04:30,401.00,-40
1580355117,2020-01-30 04:31,399.00,-41
1580355177,2020-01-30 04:32,401.00,-41
1580355237,2020-01-30 04:33,402.00,-42
1580355297,2020-01-30 04:34,402.00,-41
1580355358,2020-01-30 04:35,400.00,-41
1580355418,2020-01-30 04:36,402.00,-41
1580355478,2020-01-30 04:37,401.00,-42
1580355538,2020-01-30 04:38,402.00,-41
1580355598,2020-01-30 04:39,401.00,-39
1580355658,2020-01-30 04:40,403.00,-39
1580355718,2020-01-30 04:41,401.00,-39
1580355778,2020-01-30 04:42,404.00,-40
1580355838,2020-01-30 04:43,403.00,-41
1580355898,2020-01-30 04:44,403.00,-39
1580355958,2020-01-30 04:45,399.00,-40
1580356018,2020-01-30 04:46,399.00,-41
1580356078,2020-01-30 04:47,402.00,-39
1580356138,2020-01-30 04:48,402.00,-41
1580356198,2020-01-30 04:49,402.00,-40
1580356258,2020-01-30 04:50,401.00,-37
1580356318,2020-01-30 04:51,402.00,-41
1580356378,2020-01-30 04:52,404.00,-41
1580356438,2020-01-30 04:53,405.00,-41
1580356498,2020-01-30 04:54,404.00,-39
1580356558,2020-01-30 04:55,401.00,-38
1580356618,2020-01-30 04:56,400.00,-41
1580356678,2020-01-30 04:57,402.00,-40
1580356738,2020-01-30 04:58,403.00,-39
1580356799,2020-01-30 04:59,402.00,-39
1580356859,2020-01-30 05:00,405.00,-39
1580356919,2020-01-30 05:01,402.00,-41
1580356979,2020-01-30 05:02,402.00,-38
1580357039,2020-01-30 05:03,403.00,-39
1580357099,2020-01-30 05:04,401.00,-39
1580357159,2020-01-30 05:05,401.00,-40
1580357219,2020-01-30 05:06,402.00,-41
1580357279,2020-01-30 05:07,404.00,-40
1580357339,2020-01-30 05:08,404.00,-40
1580357399,2020-01-30 05:09,402.00,-40
1580357459,2020-01-30 05:10,401.00,-41
1580357519,2020-01-30 05:11,401.00,-39
1580357579,2020-01-30 05:12,403.00,-40
1580357639,2020-01-30 05:13,401.00,-41
1580357699,2020-01-30 05:14,402.00,-38
1580357759,2020-01-30 05:15,401.00,-40
1580357819,2020-01-30 05:16,399.00,-38
1580357879,2020-01-30 05:17,402.00,-37
1580357939,2020-01-30 05:18,401.00,-41
1580357999,2020-01-30 05:19,401.00,-36
1580358059,2020-01-30 05:20,404.00,-38
1580358119,2020-01-30 05:21,405.00,-42
1580358179,2020-01-30 05:22,403.00,-41
1580358240,2020-01-30 05:24,404.00,-39
1580358300,2020-01-30 05:25,411.00,-40
1580358360,2020-01-30 05:26,409.00,-40
1580358420,2020-01-30 05:27,410.00,-41
1580358480,2020-01-30 05:28,410.00,-38
1580358540,2020-01-30 05:29,409.00,-37
1580358600,2020-01-30 05:30,410.00,-39
1580358660,2020-01-30 05:31,410.00,-41
1580358720,2020-01-30 05:32,407.00,-40
1580358780,2020-01-30 05:33,405.00,-40
1580358840,2020-01-30 05:34,406.00,-38
1580358900,2020-01-30 05:35,410.00,-40
1580358960,2020-01-30 05:36,405.00,-40
1580359020,2020-01-30 05:37,408.00,-41
1580359080,2020-01-30 05:38,407.00,-41
1580359140,2020-01-30 05:39,411.00,-40
1580359200,2020-01-30 05:40,409.00,-37
1580359261,2020-01-30 05:41,406.00,-36
1580359321,2020-01-30 05:42,408.00,-39
1580359381,2020-01-30 05:43,408.00,-39
1580359441,2020-01-30 05:44,407.00,-41
1580359501,2020-01-30 05:45,408.00,-39
1580359561,2020-01-30 05:46,408.00,-41
1580359621,2020-01-30 05:47,407.00,-35
1580359681,2020-01-30 05:48,408.00,-40
1580359741,2020-01-30 05:49,409.00,-39
1580359801,2020-01-30 05:50,411.00,-40
1580359861,2020-01-30 05:51,406.00,-39
1580359921,2020-01-30 05:52,407.00,-38
1580359981,2020-01-30 05:53,406.00,-41
1580360041,2020-01-30 05:54,407.00,-41
1580360101,2020-01-30 05:55,408.00,-40
1580360161,2020-01-30 05:56,406.00,-41
1580360222,2020-01-30 05:57,408.00,-41
1580360282,2020-01-30 05:58,409.00,-41
1580360342,2020-01-30 05:59,408.00,-36
1580360402,2020-01-30 06:00,409.00,-39
1580360462,2020-01-30 06:01,409.00,-36
1580360522,2020-01-30 06:02,409.00,-37
1580360582,2020-01-30 06:03,407.00,-42
1580360642,2020-01-30 06:04,408.00,-37
1580360702,2020-01-30 06:05,409.00,-41
1580360762,2020-01-30 06:06,410.00,-41
1580360822,2020-01-30 06:07,411.00,-40
1580360882,2020-01-30 06:08,408.00,-37
1580360942,2020-01-30 06:09,405.00,-41
1580361002,2020-01-30 06:10,404.00,-40
1580361063,2020-01-30 06:11,406.00,-39
1580361123,2020-01-30 06:12,408.00,-41
1580361183,2020-01-30 06:13,409.00,-39
1580361243,2020-01-30 06:14,408.00,-38
1580361303,2020-01-30 06:15,406.00,-40
1580361363,2020-01-30 06:16,409.00,-37
1580361423,2020-01-30 06:17,408.00,-39
1580361483,2020-01-30 06:18,407.00,-41
1580361543,2020-01-30 06:19,409.00,-39
1580361603,2020-01-30 06:20,407.00,-41
1580361663,2020-01-30 06:21,409.00,-40
1580361723,2020-01-30 06:22,408.00,-40
1580361783,2020-01-30 06:23,408.00,-38
1580361843,2020-01-30 06:24,407.00,-36
1580361903,2020-01-30 06:25,408.00,-40
1580361963,2020-01-30 06:26,407.00,-38
1580362024,2020-01-30 06:27,407.00,-42
1580362084,2020-01-30 06:28,410.00,-39
1580362144,2020-01-30 06:29,406.00,-38
1580362204,2020-01-30 06:30,408.00,-43
1580362264,2020-01-30 06:31,405.00,-41
1580362324,2020-01-30 06:32,407.00,-40
1580362384,2020-01-30 06:33,407.00,-41
1580362444,2020-01-30 06:34,406.00,-40
1580362504,2020-01-30 06:35,407.00,-40
1580362564,2020-01-30 06:36,407.00,-41
1580362624,2020-01-30 06:37,408.00,-40
1580362684,2020-01-30 06:38,405.00,-37
1580362744,2020-01-30 06:39,406.00,-42
1580362804,2020-01-30 06:40,405.00,-40
1580362865,2020-01-30 06:41,406.00,-42
1580362925,2020-01-30 06:42,406.00,-41
1580362985,2020-01-30 06:43,406.00,-42
1580363045,2020-01-30 06:44,406.00,-38
1580363105,2020-01-30 06:45,407.00,-38
1580363165,2020-01-30 06:46,406.00,-39
1580363225,2020-01-30 06:47,403.00,-41
1580363285,2020-01-30 06:48,406.00,-41
1580363345,2020-01-30 06:49,407.00,-40
1580363405,2020-01-30 06:50,407.00,-39
1580363465,2020-01-30 06:51,406.00,-37
1580363525,2020-01-30 06:52,407.00,-39
1580363585,2020-01-30 06:53,408.00,-41
1580363645,2020-01-30 06:54,405.00,-39
1580363705,2020-01-30 06:55,408.00,-41
1580363765,2020-01-30 06:56,407.00,-41
1580363825,2020-01-30 06:57,405.00,-39
1580363885,2020-01-30 06:58,404.00,-41
1580363945,2020-01-30 06:59,405.00,-41
1580364005,2020-01-30 07:00,407.00,-41
1580364065,2020-01-30 07:01,404.00,-41
1580364126,2020-01-30 07:02,407.00,-39
1580364186,2020-01-30 07:03,405.00,-42
1580364246,2020-01-30 07:04,404.00,-40
1580364306,2020-01-30 07:05,405.00,-40
1580364366,2020-01-30 07:06,404.00,-40
1580364426,2020-01-30 07:07,407.00,-39
1580364486,2020-01-30 07:08,406.00,-41
1580364546,2020-01-30 07:09,406.00,-40
1580364606,2020-01-30 07:10,403.00,-42
1580364666,2020-01-30 07:11,403.00,-41
1580364726,2020-01-30 07:12,403.00,-38
1580364786,2020-01-30 07:13,405.00,-38
1580364846,2020-01-30 07:14,405.00,-41
1580364906,2020-01-30 07:15,404.00,-41
1580364966,2020-01-30 07:16,404.00,-42
1580365027,2020-01-30 07:17,406.00,-39
1580365087,2020-01-30 07:18,404.00,-39
1580365147,2020-01-30 07:19,404.00,-37
1580365207,2020-01-30 07:20,404.00,-41
1580365267,2020-01-30 07:21,404.00,-41
1580365327,2020-01-30 07:22,406.00,-40
1580365387,2020-01-30 07:23,407.00,-40
1580365447,2020-01-30 07:24,404.00,-38
1580365507,2020-01-30 07:25,406.00,-41
1580365567,2020-01-30 07:26,406.00,-40
1580365627,2020-01-30 07:27,408.00,-41
1580365687,2020-01-30 07:28,407.00,-39
1580365747,2020-01-30 07:29,405.00,-40
1580365807,2020-01-30 07:30,405.00,-41
1580365867,2020-01-30 07:31,405.00,-40
1580365928,2020-01-30 07:32,404.00,-41
1580365988,2020-01-30 07:33,406.00,-39
1580366048,2020-01-30 07:34,406.00,-41
1580366108,2020-01-30 07:35,404.00,-40
1580366168,2020-01-30 07:36,406.00,-40
1580366228,2020-01-30 07:37,406.00,-40
1580366288,2020-01-30 07:38,406.00,-41
1580366348,2020-01-30 07:39,409.00,-41
1580366408,2020-01-30 07:40,406.00,-39
1580366468,2020-01-30 07:41,408.00,-40
1580366528,2020-01-30 07:42,405.00,-41
1580366588,2020-01-30 07:43,406.00,-39
1580366648,2020-01-30 07:44,404.00,-41
1580366708,2020-01-30 07:45,408.00,-41
1580366768,2020-01-30 07:46,410.00,-41
1580366828,2020-01-30 07:47,411.00,-39
1580366889,2020-01-30 07:48,413.00,-41
1580366949,2020-01-30 07:49,412.00,-39
1580367009,2020-01-30 07:50,412.00,-39
1580367069,2020-01-30 07:51,411.00,-38
1580367129,2020-01-30 07:52,425.00,-42
1580367189,2020-01-30 07:53,433.00,-39
1580367249,2020-01-30 07:54,416.00,-40
1580367309,2020-01-30 07:55,411.00,-39
1580367369,2020-01-30 07:56,409.00,-40
1580367429,2020-01-30 07:57,411.00,-40
1580367489,2020-01-30 07:58,421.00,-41
1580367549,2020-01-30 07:59,412.00,-40
1580367609,2020-01-30 08:00,419.00,-40
1580367669,2020-01-30 08:01,410.00,-41
1580367729,2020-01-30 08:02,412.00,-41
1580367789,2020-01-30 08:03,414.00,-40
1580367849,2020-01-30 08:04,413.00,-41
1580367909,2020-01-30 08:05,416.00,-40
1580367970,2020-01-30 08:06,419.00,-41
1580368030,2020-01-30 08:07,418.00,-41
1580368090,2020-01-30 08:08,423.00,-39
1580368150,2020-01-30 08:09,431.00,-41
1580368210,2020-01-30 08:10,426.00,-40
1580368270,2020-01-30 08:11,422.00,-39
1580368330,2020-01-30 08:12,416.00,-39
1580368390,2020-01-30 08:13,421.00,-42
1580368450,2020-01-30 08:14,418.00,-39
1580368510,2020-01-30 08:15,422.00,-38
1580368570,2020-01-30 08:16,428.00,-38
1580368630,2020-01-30 08:17,421.00,-41
1580368690,2020-01-30 08:18,419.00,-41
1580368750,2020-01-30 08:19,409.00,-41
1580368810,2020-01-30 08:20,411.00,-41
1580368870,2020-01-30 08:21,413.00,-41
1580368930,2020-01-30 08:22,417.00,-39
1580368990,2020-01-30 08:23,411.00,-40
1580369050,2020-01-30 08:24,413.00,-39
1580369110,2020-01-30 08:25,414.00,-41
1580369170,2020-01-30 08:26,415.00,-38
1580369230,2020-01-30 08:27,418.00,-39
1580369290,2020-01-30 08:28,406.00,-41
1580369350,2020-01-30 08:29,405.00,-40
1580369410,2020-01-30 08:30,415.00,-42
1580369471,2020-01-30 08:31,411.00,-40
1580369531,2020-01-30 08:32,411.00,-40
1580369591,2020-01-30 08:33,412.00,-41
1580369651,2020-01-30 08:34,410.00,-41
1580369711,2020-01-30 08:35,410.00,-40
1580369771,2020-01-30 08:36,412.00,-40
1580369831,2020-01-30 08:37,410.00,-39
1580369891,2020-01-30 08:38,411.00,-36
1580369951,2020-01-30 08:39,410.00,-41
1580370011,2020-01-30 08:40,409.00,-38
1580370071,2020-01-30 08:41,412.00,-41
1580370131,2020-01-30 08:42,414.00,-41
1580370191,2020-01-30 08:43,414.00,-42
1580370251,2020-01-30 08:44,409.00,-40
1580370311,2020-01-30 08:45,414.00,-41
1580370371,2020-01-30 08:46,415.00,-39
1580370431,2020-01-30 08:47,421.00,-41
1580370491,2020-01-30 08:48,408.00,-39
1580370551,2020-01-30 08:49,406.00,-39
1580370612,2020-01-30 08:50,409.00,-40
1580370672,2020-01-30 08:51,408.00,-39
1580370732,2020-01-30 08:52,413.00,-39
1580370792,2020-01-30 08:53,412.00,-39
1580370852,2020-01-30 08:54,419.00,-37
1580370912,2020-01-30 08:55,411.00,-39
1580370972,2020-01-30 08:56,408.00,-38
1580371032,2020-01-30 08:57,408.00,-42
1580371092,2020-01-30 08:58,409.00,-42
1580371152,2020-01-30 08:59,405.00,-41
1580371212,2020-01-30 09:00,405.00,-36
1580371272,2020-01-30 09:01,408.00,-41
1580371332,2020-01-30 09:02,406.00,-40
1580371392,2020-01-30 09:03,404.00,-39
1580371452,2020-01-30 09:04,405.00,-41
1580371512,2020-01-30 09:05,402.00,-40
1580371573,2020-01-30 09:06,403.00,-38
1580371633,2020-01-30 09:07,401.00,-38
1580371693,2020-01-30 09:08,406.00,-39
1580371753,2020-01-30 09:09,404.00,-40
1580371813,2020-01-30 09:10,404.00,-40
1580371873,2020-01-30 09:11,403.00,-39
1580371933,2020-01-30 09:12,403.00,-41
1580371993,2020-01-30 09:13,403.00,-40
1580372053,2020-01-30 09:14,402.00,-41
1580372113,2020-01-30 09:15,405.00,-38
1580372173,2020-01-30 09:16,403.00,-37
1580372233,2020-01-30 09:17,402.00,-37
1580372293,2020-01-30 09:18,405.00,-42
1580372353,2020-01-30 09:19,402.00,-41
1580372414,2020-01-30 09:20,403.00,-42
1580372474,2020-01-30 09:21,405.00,-41
1580372534,2020-01-30 09:22,403.00,-39
1580372594,2020-01-30 09:23,405.00,-41
1580372654,2020-01-30 09:24,401.00,-41
1580372714,2020-01-30 09:25,404.00,-42
1580372774,2020-01-30 09:26,403.00,-41
1580372834,2020-01-30 09:27,404.00,-41
1580372894,2020-01-30 09:28,404.00,-41
1580372954,2020-01-30 09:29,402.00,-38
1580373014,2020-01-30 09:30,402.00,-38
1580373074,2020-01-30 09:31,402.00,-41
1580373134,2020-01-30 09:32,402.00,-40
1580373194,2020-01-30 09:33,404.00,-37
1580373254,2020-01-30 09:34,404.00,-41
1580373315,2020-01-30 09:35,403.00,-41
1580373375,2020-01-30 09:36,401.00,-39
1580373435,2020-01-30 09:37,404.00,-39
1580373495,2020-01-30 09:38,405.00,-41
1580373555,2020-01-30 09:39,403.00,-41
1580373615,2020-01-30 09:40,403.00,-37
1580373675,2020-01-30 09:41,401.00,-39
1580373735,2020-01-30 09:42,405.00,-39
1580373795,2020-01-30 09:43,404.00,-40
1580373855,2020-01-30 09:44,404.00,-41
1580373915,2020-01-30 09:45,401.00,-37
1580373975,2020-01-30 09:46,403.00,-40
1580374035,2020-01-30 09:47,404.00,-40
1580374095,2020-01-30 09:48,406.00,-40
1580374155,2020-01-30 09:49,406.00,-41
1580374216,2020-01-30 09:50,405.00,-40
1580374276,2020-01-30 09:51,403.00,-39
1580374336,2020-01-30 09:52,404.00,-39
1580374396,2020-01-30 09:53,405.00,-41
1580374456,2020-01-30 09:54,405.00,-41
1580374516,2020-01-30 09:55,404.00,-40
1580374576,2020-01-30 09:56,402.00,-41
1580374636,2020-01-30 09:57,403.00,-40
1580374696,2020-01-30 09:58,404.00,-39
1580374756,2020-01-30 09:59,405.00,-38
1580374816,2020-01-30 10:00,402.00,-40
1580374876,2020-01-30 10:01,400.00,-41
1580374936,2020-01-30 10:02,403.00,-41
1580374996,2020-01-30 10:03,403.00,-41
1580375056,2020-01-30 10:04,402.00,-42
1580375116,2020-01-30 10:05,402.00,-41
1580375177,2020-01-30 10:06,405.00,-40
1580375237,2020-01-30 10:07,401.00,-41
1580375297,2020-01-30 10:08,406.00,-41
1580375357,2020-01-30 10:09,402.00,-42
1580375417,2020-01-30 10:10,402.00,-41
1580375477,2020-01-30 10:11,401.00,-39
1580375537,2020-01-30 10:12,403.00,-40
1580375597,2020-01-30 10:13,401.00,-39
1580375657,2020-01-30 10:14,402.00,-42
1580375717,2020-01-30 10:15,404.00,-42